Temp
-3 -2 -3 -3 -3 -3 -4 -3 -4 -2 -2 -2 -4 -3 -3 -2 -3 -2 -2 -2 -1 -1 -2 -2 -2 -2 -2 -1 -1 -1 -1 -1 -2 -2 -2 -2 -2 -3 -3 -3 -3 -3 -3 -3
-2 -1 -2 -2 -2 -3 -3 -4 -4 -2 -2 -2 -2 -2 -2 -2 -2 -1 -1 -1 -1 -1 -1 -1 -1 -1 -0 -0 -1 -1 -1 -2 -2 -2 -2 -2 -3 -3 -3 -3 -3 -3 -4 -4
-3 -2 -3 -2 0 0 -0 -0 -1 -2 -1 -2 -1 -1 -1 -1 -1 -1 -1 -0 -0 -0 -0 -0 -1 -1 1 1 1 0 1 2 1 0 -2 -3 -3 -3 -3 -4 -4 -3 -3 -4
-4 -2 -3 0 0 0 -0 0 0 0 0 -1 0 -1 -1 -0 -1 -0 -0 -1 0 0 -0 -0 -1 -1 -1 0 2 2 2 3 3 2 -0 -1 -2 -3 -4 -4 -3 -3 -3 -3
-4 -3 -1 1 1 1 1 2 1 1 1 -0 0 0 -0 -0 -0 -0 0 0 1 1 1 1 1 0 1 0 1 2 2 1 1 1 0 -1 -0 -0 -1 -1 -2 -2 -2 -2
-3 -4 -3 0 1 0 0 1 1 1 1 0 0 0 1 0 0 0 1 1 1 1 1 1 1 1 1 1 1 2 3 2 2 1 0 -0 -0 -0 -1 -1 -1 -1 -1 -2
-5 -5 -2 1 1 0 -0 1 1 1 1 1 1 1 1 1 1 1 1 1 1 1 1 1 1 1 1 1 1 1 2 2 2 1 1 1 1 1 0 -1 -2 -1 -1 -1
-5 -4 -3 1 1 0 1 1 1 1 1 2 1 1 2 2 2 2 1 1 1 1 1 1 1 1 1 1 1 1 1 1 1 1 1 1 1 1 0 0 0 -0 -0 -1
-1 1 2 2 1 1 1 1 1 1 2 2 2 2 2 2 2 2 2 1 1 1 1 1 1 1 1 1 1 1 1 1 1 1 1 0 0 0 0 0 0 0 0 0
0 3 2 2 2 2 2 3 3 3 3 3 3 3 2 2 2 2 2 2 2 2 2 1 1 1 1 1 1 1 0 0 1 1 0 0 -0 -0 -0 -1 -1 -1 -1 -1
2 3 3 4 3 3 3 3 3 3 3 3 3 3 3 2 2 2 2 2 2 2 2 1 1 1 1 1 1 1 0 0 -0 -0 -0 -0 -0 -0 -0 -0 -0 -0 -0 -0
3 4 3 3 3 2 3 3 3 4 3 3 3 3 3 3 3 2 2 2 2 2 2 1 1 1 1 1 1 0 0 0 -0 -0 -0 -1 -1 -1 -1 -1 -1 -1 -1 -1
3 2 3 2 2 3 4 4 4 4 4 4 3 3 3 3 3 3 2 2 1 1 1 1 1 0 1 1 1 0 0 -0 -0 -0 -1 -1 -1 -1 -1 -1 -1 -2 -2 -2
3 3 3 3 3 4 4 4 5 4 4 4 4 4 3 3 3 3 2 2 2 2 1 1 1 0 0 0 0 0 -0 -0 -1 -1 -1 -1 -1 -2 -2 -2 -2 -2 -2 -2
3 3 4 4 4 4 5 5 5 4 4 4 4 4 3 3 3 2 2 2 2 2 2 1 2 1 1 1 0 0 0 -0 -0 -1 -1 -1 -1 -1 -2 -2 -2 -3 -3 -3
3 3 3 3 4 4 5 5 4 4 4 4 3 3 3 3 3 2 2 2 2 2 1 1 1 0 -0 0 -0 -0 -1 -1 -1 -1 -1 -1 -2 -2 -2 -2 -3 -3 -4 -4
2 2 2 2 3 3 4 4 4 4 4 3 3 3 3 3 3 2 1 1 1 2 2 1 0 -0 -0 -0 -0 -0 -1 -1 -1 -2 -2 -2 -2 -2 -3 -3 -3 -4 -4 -5
0 0 1 1 1 2 1 1 1 1 2 2 2 2 2 2 2 2 2 2 2 2 2 0 -0 -1 -1 -1 -1 -1 -2 -2 -2 -3 -3 -3 -3 -3 -4 -4 -5 -5 -6 -6
-0 0 1 1 1 1 0 0 1 1 1 1 1 1 1 1 1 1 1 1 1 1 0 -0 -0 0 -0 -1 -3 -3 -4 -4 -4 -4 -5 -5 -5 -5 -5 -6 -6 -6 -7 -7
-1 -1 -1 -0 0 0 -0 0 0 1 1 1 1 1 1 1 0 0 1 1 0 -1 -1 -1 -1 -2 -2 -2 -3 -3 -4 -4 -5 -5 -6 -6 -6 -6 -6 -7 -7 -8 -8 -8
-2 -2 -1 -1 -1 -1 -0 0 1 1 1 1 1 1 1 1 0 0 0 0 -1 -1 -1 -1 -2 -2 -3 -3 -4 -4 -4 -4 -5 -6 -6 -7 -7 -7 -7 -8 -8 -9 -9 -9
-1 -1 -1 -2 -1 -1 -1 -0 -0 0 0 0 0 0 -0 -0 -1 -1 -1 -1 -1 -1 -1 -2 -2 -3 -3 -3 -3 -4 -5 -6 -6 -7 -7 -8 -8 -8 -8 -8 -9 -10 -10 -9
-2 -2 -2 -2 -1 -1 -1 -1 -1 -1 -0 -0 -1 -1 -1 -1 -1 -1 -1 -2 -2 -2 -2 -3 -3 -4 -4 -4 -4 -5 -5 -6 -8 -8 -7 -7 -9 -10 -10 -10 -10 -10 -10 -10
-3 -2 -2 -2 -2 -1 -1 -1 -1 -2 -2 -2 -2 -2 -2 -2 -1 -2 -2 -2 -2 -2 -3 -4 -4 -5 -5 -5 -6 -6 -6 -6 -8 -8 -8 -8 -9 -11 -11 -11 -11 -10 -11 -11
-4 -3 -2 -3 -2 -2 -1 -1 -2 -2 -2 -2 -2 -2 -2 -2 -2 -2 -2 -2 -2 -2 -3 -4 -4 -5 -5 -6 -6 -6 -7 -7 -8 -9 -8 -9 -10 -12 -13 -12 -12 -11 -11 -11
-4 -4 -3 -4 -3 -3 -3 -2 -2 -2 -2 -2 -1 -2 -2 -2 -2 -2 -2 -3 -3 -3 -4 -4 -4 -5 -5 -6 -6 -7 -8 -8 -9 -9 -9 -10 -11 -13 -13 -12 -11 -11 -11 -12
-4 -4 -4 -3 -3 -3 -3 -3 -3 -3 -3 -2 -2 -2 -3 -3 -3 -3 -3 -3 -3 -4 -4 -4 -5 -5 -6 -7 -8 -8 -8 -9 -9 -10 -10 -11 -12 -12 -12 -12 -12 -11 -12 -14
Height
3083 3082 3080 3077 3076 3076 3074 3073 3073 3065 3062 3060 3056 3052 3049 3045 3041 3037 3033 3029 3024 3017 3010 3004 2998 2993 2987 2985 2983 2981 2979 2980 2983 2984 2986 2987 2987 2989 2991 2993 2995 2996 2997 2998
3077 3075 3074 3071 3069 3068 3068 3068 3065 3062 3058 3059 3056 3053 3050 3046 3043 3040 3035 3031 3026 3021 3015 3010 3003 2998 2993 2989 2987 2981 2974 2974 2978 2980 2982 2984 2985 2985 2987 2988 2990 2992 2991 2992
3075 3074 3071 3065 3060 3061 3061 3060 3061 3059 3058 3055 3054 3051 3049 3046 3044 3040 3037 3033 3029 3025 3019 3014 3008 3003 2999 2995 2993 2986 2978 2975 2977 2979 2980 2983 2982 2983 2984 2986 2986 2987 2988 2988
3075 3071 3069 3060 3059 3059 3057 3057 3057 3056 3055 3053 3052 3050 3048 3046 3043 3040 3037 3033 3031 3028 3023 3017 3012 3009 3004 3002 2999 2994 2990 2985 2985 2984 2983 2982 2981 2980 2981 2982 2982 2983 2983 2985
3077 3073 3063 3056 3057 3056 3054 3054 3053 3052 3052 3050 3050 3048 3047 3045 3042 3039 3037 3035 3032 3029 3025 3021 3018 3015 3011 3008 3004 3002 3000 2995 2992 2990 2989 2986 2984 2982 2979 2980 2980 2979 2979 2981
3076 3074 3064 3056 3056 3054 3052 3050 3049 3049 3049 3047 3047 3045 3044 3042 3041 3039 3038 3036 3034 3031 3028 3024 3022 3018 3016 3013 3009 3007 3004 3001 2998 2996 2993 2992 2989 2987 2985 2983 2982 2980 2979 2980
3073 3071 3058 3054 3053 3052 3053 3055 3048 3047 3046 3046 3045 3045 3044 3042 3041 3040 3039 3037 3034 3032 3029 3027 3024 3021 3018 3015 3013 3010 3007 3005 3002 2999 2997 2995 2994 2992 2989 2988 2987 2985 2985 2985
3067 3067 3057 3052 3052 3052 3051 3048 3047 3045 3044 3044 3043 3042 3041 3040 3039 3039 3038 3037 3035 3033 3031 3028 3026 3023 3020 3018 3015 3012 3011 3009 3006 3004 3003 3001 2999 2996 2995 2992 2990 2989 2989 2990
3060 3052 3050 3050 3049 3048 3047 3045 3044 3043 3043 3042 3041 3040 3039 3039 3038 3037 3036 3035 3033 3032 3031 3029 3027 3025 3023 3020 3017 3014 3012 3009 3007 3005 3003 3001 3000 2998 2997 2996 2995 2995 2994 2993
3054 3049 3047 3045 3045 3044 3042 3042 3041 3041 3040 3040 3039 3038 3038 3037 3036 3035 3034 3032 3031 3029 3028 3027 3025 3024 3022 3020 3017 3014 3011 3008 3006 3004 3002 3001 2999 2998 2997 2997 2996 2995 2995 2994
3046 3045 3044 3042 3042 3041 3039 3038 3037 3037 3036 3036 3035 3035 3034 3033 3032 3031 3031 3030 3029 3027 3026 3025 3023 3021 3020 3017 3015 3013 3011 3009 3007 3005 3002 3001 2999 2998 2997 2996 2994 2993 2992 2991
3041 3041 3041 3039 3038 3036 3035 3034 3033 3032 3032 3031 3030 3030 3029 3029 3028 3027 3026 3025 3025 3023 3022 3021 3019 3018 3016 3013 3011 3009 3007 3006 3004 3002 3000 2998 2997 2995 2993 2991 2990 2988 2987 2985
3035 3034 3033 3033 3031 3031 3030 3030 3029 3028 3028 3027 3027 3025 3024 3024 3023 3022 3021 3020 3018 3017 3016 3015 3014 3012 3010 3009 3007 3005 3004 3002 3000 2998 2996 2994 2992 2990 2988 2986 2984 2982 2981 2979
3028 3026 3028 3027 3027 3025 3023 3023 3022 3021 3021 3021 3020 3020 3019 3019 3018 3017 3016 3015 3013 3012 3011 3010 3009 3007 3005 3004 3002 3001 2999 2997 2995 2993 2991 2989 2986 2984 2982 2980 2978 2977 2975 2973
3023 3022 3022 3022 3021 3019 3017 3016 3016 3015 3015 3015 3014 3013 3012 3012 3011 3011 3009 3008 3007 3006 3006 3004 3003 3002 2999 2998 2996 2994 2992 2990 2988 2986 2984 2981 2979 2977 2975 2973 2972 2970 2968 2966
3017 3017 3017 3016 3015 3014 3013 3010 3009 3009 3008 3008 3008 3007 3006 3005 3005 3004 3002 3001 2999 2999 2997 2995 2993 2992 2989 2989 2987 2985 2983 2981 2979 2977 2975 2973 2971 2969 2967 2965 2963 2962 2960 2958
3010 3011 3011 3012 3011 3009 3007 3006 3004 3003 3003 3003 3002 3001 3000 2999 2998 2997 2995 2993 2991 2990 2989 2987 2986 2984 2981 2980 2978 2976 2974 2972 2969 2968 2966 2964 2962 2960 2958 2956 2955 2953 2951 2949
3005 3006 3006 3007 3007 3005 3003 3002 3001 3000 2999 2997 2996 2994 2993 2991 2990 2988 2986 2983 2982 2981 2981 2977 2976 2973 2971 2969 2967 2965 2963 2961 2959 2957 2956 2954 2952 2951 2949 2947 2945 2943 2942 2939
3001 3001 3000 3000 3000 2999 2998 2997 2996 2995 2993 2991 2990 2988 2986 2983 2981 2979 2976 2974 2973 2970 2972 2966 2963 2959 2958 2956 2953 2950 2950 2949 2948 2947 2946 2944 2942 2941 2939 2937 2935 2934 2932 2930
2995 2996 2996 2995 2995 2994 2992 2991 2990 2988 2985 2982 2980 2978 2976 2974 2971 2969 2966 2964 2964 2959 2957 2954 2952 2950 2947 2945 2942 2940 2938 2937 2936 2935 2935 2933 2932 2930 2928 2926 2925 2923 2922 2921
2992 2992 2992 2991 2989 2988 2985 2983 2982 2980 2977 2973 2971 2968 2966 2964 2961 2958 2957 2953 2956 2947 2945 2943 2940 2939 2936 2933 2930 2928 2927 2925 2924 2923 2922 2921 2920 2918 2917 2916 2914 2913 2912 2911
2985 2985 2985 2985 2983 2982 2978 2974 2971 2970 2968 2965 2961 2957 2954 2954 2951 2950 2947 2943 2943 2938 2936 2934 2931 2927 2923 2919 2917 2915 2913 2912 2911 2910 2910 2910 2909 2908 2907 2905 2905 2904 2902 2901
2980 2980 2979 2978 2976 2973 2970 2966 2963 2959 2957 2955 2953 2950 2947 2946 2945 2940 2940 2938 2931 2928 2924 2922 2919 2916 2912 2909 2907 2904 2902 2900 2898 2899 2897 2895 2893 2894 2895 2895 2895 2894 2894 2892
2975 2973 2972 2969 2966 2965 2964 2961 2956 2952 2949 2948 2945 2942 2939 2935 2935 2929 2924 2922 2920 2916 2912 2910 2907 2904 2901 2898 2895 2893 2891 2889 2888 2887 2886 2883 2881 2881 2884 2885 2886 2886 2884 2882
2964 2962 2961 2959 2956 2953 2951 2949 2947 2943 2941 2940 2938 2935 2931 2925 2919 2919 2916 2911 2907 2903 2901 2898 2894 2891 2888 2886 2884 2883 2882 2879 2878 2877 2874 2872 2871 2871 2873 2875 2876 2875 2875 2872
2953 2951 2950 2948 2945 2942 2940 2936 2935 2933 2930 2931 2931 2925 2922 2917 2912 2907 2904 2901 2896 2892 2888 2884 2881 2877 2875 2874 2873 2872 2870 2868 2867 2867 2865 2864 2863 2863 2865 2867 2867 2867 2865 2862
2943 2940 2940 2939 2936 2931 2929 2927 2925 2924 2922 2919 2918 2916 2911 2907 2903 2899 2894 2889 2884 2880 2876 2871 2868 2866 2864 2864 2863 2861 2860 2859 2858 2857 2856 2856 2857 2858 2859 2860 2859 2857 2855 2854
Wind_Speed
13 17 19 22 24 20 23 24 18 25 26 23 15 12 15 16 17 16 16 18 21 25 28 34 34 33 34 34 28 15 5 15 17 15 15 15 16 16 17 19 18 17 21 24
22 12 11 20 23 25 26 27 29 27 26 10 15 14 13 12 12 13 15 17 18 20 22 26 29 31 32 32 32 31 13 5 10 15 14 13 15 18 16 15 16 20 19 18
9 10 19 21 5 6 12 17 16 21 12 18 17 14 11 10 11 12 13 15 16 17 18 22 25 27 28 30 32 35 37 24 13 12 4 4 12 15 15 17 18 21 21 19
14 11 3 4 10 15 19 16 15 16 15 19 13 12 9 9 10 11 12 13 14 15 17 21 23 24 25 25 29 31 33 28 21 17 20 17 11 17 19 20 21 22 24 20
6 11 20 7 5 7 10 12 11 14 12 16 12 11 8 7 7 7 9 11 14 16 18 20 20 21 23 23 25 25 25 27 23 15 12 16 17 12 3 9 16 18 15 15
3 4 4 5 10 13 13 11 7 7 10 14 13 12 6 2 4 6 9 11 12 13 15 16 17 18 18 19 20 21 22 22 22 21 19 18 19 23 24 20 15 7 7 15
16 9 13 9 7 8 3 3 11 8 8 9 9 7 4 4 5 6 7 8 10 12 12 13 14 16 16 16 16 16 17 17 18 18 17 15 14 15 14 14 14 14 14 12
10 9 10 2 5 4 7 11 10 6 5 4 4 3 3 4 5 5 5 7 8 9 11 13 14 14 15 15 15 15 14 13 12 12 11 11 11 10 9 9 8 6 5 3
10 7 15 16 15 15 15 12 10 8 7 6 5 4 4 5 5 5 5 6 7 9 11 12 13 13 12 12 12 13 13 12 12 12 11 11 10 10 9 7 6 4 4 6
17 4 9 13 12 16 17 13 13 10 9 9 8 7 7 7 7 6 7 7 8 9 10 11 12 12 12 12 11 12 12 12 12 11 10 10 10 10 10 10 9 9 8 8
22 15 15 12 10 9 11 12 13 14 14 13 12 10 11 10 10 10 10 10 11 11 11 11 12 12 12 12 12 11 11 11 11 11 10 10 9 9 10 10 11 11 12 13
15 14 16 18 18 21 20 18 16 16 16 16 16 14 15 13 14 13 13 13 13 13 12 12 12 13 14 14 14 14 14 14 15 15 14 14 14 14 14 14 14 14 15 16
27 26 24 19 20 20 21 20 20 21 20 18 20 20 19 17 17 17 17 16 17 17 16 16 16 16 16 16 16 16 16 17 17 17 17 17 17 17 17 17 18 18 19 19
20 21 16 16 17 19 21 20 20 20 20 21 20 21 22 21 21 21 20 22 23 22 21 21 21 21 22 21 20 20 20 20 20 20 20 20 20 20 20 20 21 22 22 23
14 13 13 15 15 17 20 21 20 19 20 20 21 22 22 23 24 24 25 27 27 27 25 27 28 26 27 27 26 26 26 26 26 25 25 24 24 23 23 23 23 24 24 24
17 17 17 15 14 14 15 16 17 18 19 19 20 22 23 24 24 25 27 28 29 27 28 30 30 29 30 30 30 29 29 29 29 28 27 27 27 27 27 26 26 25 24 23
22 19 12 10 10 11 12 13 14 15 17 19 21 23 24 25 26 26 27 29 31 31 31 33 32 34 35 35 35 36 35 34 34 32 31 31 30 29 29 28 28 27 26 23
17 13 10 8 6 6 8 9 11 13 15 16 18 21 23 26 27 28 31 33 34 35 33 33 31 34 36 37 37 39 39 37 37 35 34 33 32 32 31 29 28 27 26 25
15 14 12 10 9 9 11 14 18 21 23 25 25 25 26 26 27 28 30 31 31 33 29 35 37 41 40 39 39 40 40 39 38 37 36 36 35 33 32 31 29 28 28 26
18 15 13 12 14 17 20 24 28 30 31 30 30 31 31 33 36 37 39 39 38 39 39 39 39 38 40 42 44 44 43 42 41 39 38 37 36 34 34 32 30 29 27 28
17 14 15 18 21 26 28 30 33 33 31 30 30 31 32 32 35 37 37 38 31 37 38 39 41 41 40 40 40 41 42 43 44 42 39 38 37 36 35 32 31 29 28 29
21 20 20 22 26 30 33 31 31 31 32 34 35 35 33 27 26 25 25 29 26 29 30 29 30 33 36 39 40 40 39 39 41 40 39 37 36 36 35 34 33 30 31 32
23 23 25 29 32 35 31 30 31 34 33 30 25 24 25 25 27 31 29 27 33 33 34 34 34 35 36 38 38 39 38 38 36 37 40 41 37 33 33 32 32 32 33 33
25 27 32 38 37 37 33 32 35 32 25 23 24 28 32 33 31 35 38 38 38 38 38 38 38 38 38 40 39 37 37 36 32 33 42 46 38 29 30 30 29 33 34 31
34 35 38 36 33 35 35 36 35 28 26 27 28 32 35 37 39 36 37 37 37 40 38 37 39 41 41 38 34 34 34 32 30 34 43 41 32 26 26 27 32 33 31 34
42 43 44 43 39 35 36 40 39 31 30 31 32 35 35 36 36 37 37 37 37 37 38 39 36 33 31 29 28 30 29 28 29 35 39 37 30 25 23 28 31 30 30 29
46 47 41 38 34 35 38 40 35 28 32 37 36 34 34 33 33 35 35 35 35 35 35 33 30 28 27 28 27 27 26 25 28 30 32 29 21 19 26 29 30 30 28 21
Wind_Direction
283 288 282 270 272 257 244 266 261 283 289 318 337 18 16 16 18 22 23 26 26 29 35 43 50 55 55 57 58 47 221 225 234 252 265 263 243 247 256 266 256 260 257 255
301 312 285 287 282 265 261 258 265 278 291 291 315 315 342 8 6 11 10 21 24 29 30 41 47 46 44 42 39 32 35 162 216 231 245 256 244 246 241 253 246 256 249 249
290 310 304 291 287 271 269 266 270 262 302 282 297 316 338 359 3 5 8 19 22 27 31 40 43 45 46 38 37 37 41 60 65 49 5 273 255 248 247 251 256 260 258 254
290 334 257 293 288 293 290 280 268 274 277 283 304 304 317 337 351 357 2 10 21 25 30 34 37 37 38 38 38 39 49 57 63 57 49 30 349 269 257 258 257 270 263 250
267 299 292 289 308 325 307 295 284 278 276 277 292 286 296 322 341 354 4 17 18 23 28 33 35 36 40 32 38 38 43 55 61 73 60 44 50 62 299 262 258 247 247 227
238 276 259 290 299 306 312 318 344 303 272 279 288 285 280 293 338 356 7 13 14 17 22 25 24 28 32 35 34 31 32 40 47 48 56 54 50 59 64 66 63 98 141 190
240 254 273 279 311 296 253 312 327 315 297 290 286 293 295 338 350 7 1 360 5 8 14 19 18 18 21 26 30 28 29 33 35 35 33 31 32 34 38 46 51 59 60 74
202 229 261 275 308 265 293 297 306 312 299 283 271 282 306 328 343 344 347 353 356 0 7 11 10 11 11 9 11 21 23 27 33 32 28 19 17 24 27 29 31 27 18 352
233 254 287 291 294 293 286 281 281 279 273 268 267 272 281 290 297 309 324 334 344 352 358 359 357 358 358 358 359 5 7 9 9 8 9 11 8 7 3 356 343 321 289 274
278 226 268 287 289 287 280 274 268 264 262 260 259 262 265 266 274 286 298 310 323 334 341 341 340 342 344 346 352 356 354 354 352 352 352 352 350 346 341 335 327 316 302 288
280 282 278 276 256 282 291 277 269 261 259 259 260 259 266 274 281 288 296 304 310 313 318 321 322 323 324 330 335 338 340 339 336 334 333 330 326 323 320 315 311 306 302 300
287 287 278 278 279 276 275 271 273 272 267 264 261 259 261 261 265 270 274 280 285 290 293 296 300 303 308 313 317 321 325 327 326 326 326 325 324 323 320 317 315 313 309 305
283 277 280 282 276 282 284 281 280 281 279 278 274 271 268 266 267 269 273 276 276 278 283 284 285 287 290 294 299 305 310 312 314 315 316 317 316 315 314 313 312 311 310 309
282 283 278 274 283 287 285 285 282 278 279 278 280 279 280 281 277 279 278 276 280 282 283 285 286 288 290 294 297 301 303 304 306 308 309 310 311 311 311 310 310 310 309 310
274 277 282 287 290 292 286 279 282 279 274 280 278 277 275 275 278 280 280 283 287 292 294 293 296 295 294 296 297 297 298 299 301 302 303 304 304 304 304 304 305 305 307 310
267 282 287 283 279 288 292 288 273 275 276 277 280 282 284 286 288 289 290 291 293 294 290 289 289 289 288 289 288 287 287 287 289 292 295 297 298 298 299 299 299 299 300 303
265 282 281 280 283 284 288 290 289 283 281 282 281 282 283 284 286 289 289 289 290 293 296 294 297 295 294 294 292 290 289 288 288 288 290 290 290 290 290 290 291 292 293 293
255 243 260 280 296 306 318 327 330 323 315 308 298 292 289 287 287 285 284 284 288 290 290 289 289 287 287 288 288 287 286 285 284 284 283 284 284 284 285 283 283 283 284 286
223 235 244 247 261 283 300 311 314 313 308 303 298 295 293 292 291 291 291 293 295 295 300 288 286 284 282 278 277 278 280 281 281 282 282 282 283 283 281 279 278 278 281 288
228 236 249 264 277 287 299 305 310 310 306 302 298 295 293 291 291 290 290 290 294 293 291 289 287 288 291 290 287 284 282 281 281 281 281 282 282 281 278 276 274 273 277 290
234 250 269 281 290 299 306 306 307 305 303 300 298 296 294 292 292 293 296 297 298 292 293 295 295 293 291 290 290 292 291 287 283 281 280 280 279 277 277 274 271 270 274 288
242 256 272 289 296 302 306 307 305 304 303 300 298 297 296 300 301 303 306 306 304 301 300 299 298 296 293 288 288 286 285 283 281 280 279 279 278 277 276 273 269 270 275 290
255 267 280 294 302 304 304 302 302 305 306 303 299 296 300 301 302 302 301 297 299 299 298 297 295 293 293 293 294 292 290 286 282 278 275 272 267 270 272 271 269 272 284 288
270 280 292 301 304 302 298 300 307 310 303 300 300 302 303 303 305 305 305 306 304 302 302 301 298 296 297 297 296 295 294 294 290 281 276 272 263 262 269 268 270 280 282 290
291 289 297 301 303 300 296 299 308 303 297 297 299 301 302 303 306 308 305 303 303 301 298 296 295 294 295 296 296 296 293 291 289 284 279 275 265 259 261 266 273 278 287 298
290 294 299 299 301 299 299 304 307 300 294 294 297 300 302 303 305 306 305 303 302 300 299 298 294 288 286 287 287 287 288 288 287 288 287 280 264 261 266 271 280 283 291 293
286 291 297 297 295 295 299 301 295 288 291 295 297 301 302 303 303 304 306 308 308 306 304 298 289 283 283 281 279 283 290 294 292 292 288 274 270 268 272 281 283 287 291 279